Probability
0 0 0 0 0 0 0 0 0 0 0 0 0 0 3 10 10 10 10 13 13 23 19 19 19 23 16 6 0 3 0 0 0 0 0 0 0 0 0 0 0 0 0 0
0 0 0 0 0 0 0 0 0 0 0 0 0 0 6 16 10 10 10 10 13 13 23 23 16 16 10 6 0 0 0 0 0 0 0 0 0 0 0 0 0 0 0 0
0 0 0 0 0 0 0 0 0 0 0 0 0 0 0 10 10 6 6 10 19 13 26 23 19 13 0 3 0 3 0 0 0 0 0 0 0 0 0 0 0 0 0 0
0 0 0 0 0 0 0 0 0 0 0 0 0 0 0 0 0 3 6 10 13 13 23 16 16 10 3 0 0 0 0 0 0 0 0 0 0 0 0 0 0 0 0 0
0 0 0 0 0 0 0 0 0 0 0 0 0 0 0 0 0 3 3 6 13 16 16 19 19 10 10 3 0 0 0 0 0 0 0 0 0 0 0 0 0 0 0 0
0 0 0 0 0 0 0 0 0 0 0 0 0 0 0 0 0 0 0 6 10 13 10 10 13 13 10 6 3 3 3 3 0 0 0 0 0 0 0 0 0 0 0 0
0 0 0 0 0 0 0 0 0 0 0 0 0 0 0 0 0 0 0 6 6 13 10 6 3 10 6 6 6 6 3 3 3 0 0 0 0 0 0 0 0 0 0 0
0 0 0 0 0 0 0 0 0 0 0 0 0 0 0 0 0 0 0 6 6 13 13 13 10 10 10 6 6 6 6 3 3 3 3 0 0 0 0 0 0 0 0 0
0 0 0 0 0 0 0 0 0 0 0 0 0 0 0 0 0 0 3 3 6 13 13 13 10 10 10 6 6 6 6 6 3 3 3 0 0 0 0 0 0 0 0 0
0 0 0 0 0 0 0 0 0 0 0 0 0 0 0 0 0 3 3 3 3 3 10 10 13 10 13 6 6 6 6 6 6 3 3 0 0 0 0 0 0 0 0 0
0 0 0 0 0 0 0 0 0 0 0 0 0 0 0 0 0 0 3 3 0 0 3 6 6 6 10 6 6 6 3 3 3 3 3 3 0 0 0 0 0 0 0 0
0 0 0 0 0 0 0 0 0 0 0 0 0 0 0 0 0 0 3 0 0 0 0 3 3 3 3 3 3 3 3 3 3 3 3 3 0 0 0 0 0 0 0 0
0 0 0 0 0 0 0 0 0 0 0 0 0 0 0 0 0 0 0 0 0 0 0 3 3 3 3 3 3 3 3 3 3 3 3 0 0 0 0 0 0 0 0 0
0 0 0 0 0 0 0 0 0 0 0 0 0 0 0 0 0 0 0 0 0 0 0 0 0 0 0 0 0 0 3 3 0 0 0 0 0 0 0 0 0 0 0 0
0 0 0 0 0 0 0 0 0 0 0 0 0 0 0 0 0 0 0 0 0 0 0 0 0 0 0 0 0 3 3 0 0 0 0 0 0 0 0 0 0 0 0 0
0 0 0 0 0 0 0 0 0 0 0 0 0 0 0 0 0 0 0 0 0 0 0 0 0 0 0 0 0 0 0 0 0 0 0 0 0 0 0 0 0 0 0 0
0 0 0 0 0 0 0 0 0 0 0 0 0 0 0 0 0 0 0 0 0 0 0 0 0 0 0 0 0 0 0 0 0 0 0 0 0 0 0 0 0 0 0 0
0 0 0 0 0 0 0 0 0 0 0 0 0 0 0 0 0 0 0 0 0 0 0 0 0 0 0 0 0 0 0 0 0 0 0 0 0 0 0 0 0 0 0 0
0 0 0 0 0 0 0 0 0 0 0 0 0 0 0 0 0 0 0 0 0 0 0 0 0 0 0 0 0 0 0 0 0 0 0 0 0 0 0 0 0 0 0 0
0 0 0 0 0 0 0 0 0 0 0 0 0 0 0 0 0 0 0 0 0 0 0 0 0 0 0 0 0 0 0 0 0 0 0 0 0 0 0 0 0 0 0 0
0 0 0 0 0 0 0 0 0 0 0 0 0 0 0 0 0 0 0 0 0 0 0 0 0 0 0 0 0 0 0 0 0 0 0 0 0 0 0 0 0 0 0 0
0 0 0 0 0 0 0 0 0 0 0 0 0 0 0 0 0 0 0 0 0 0 0 0 0 0 0 0 0 0 0 0 0 0 0 0 0 0 0 0 0 0 0 0
0 0 0 0 0 0 0 0 0 0 0 0 0 0 0 0 0 0 0 0 0 0 0 0 0 0 0 0 0 0 0 0 0 0 0 0 0 0 0 0 0 0 0 0
0 0 0 0 0 0 0 0 0 0 0 0 0 0 0 0 0 0 0 0 0 0 0 0 0 0 0 0 0 0 0 0 0 0 0 0 0 0 0 0 0 0 0 0
0 0 0 0 0 0 0 0 0 0 0 0 0 0 0 0 0 0 0 0 0 0 0 0 0 0 0 0 0 0 0 0 0 0 0 0 0 0 0 0 0 0 0 0
0 0 0 0 0 0 0 0 0 0 0 0 0 0 0 0 0 0 0 0 0 0 0 0 0 0 0 0 0 0 0 0 0 0 0 0 0 0 0 0 0 0 0 0
Height
5880 5881 5879 5878 5876 5874 5871 5868 5865 5861 5857 5854 5850 5846 5843 5840 5838 5836 5835 5834 5834 5835 5836 5838 5841 5843 5846 5849 5853 5855 5857 5860 5862 5863 5864 5865 5866 5866 5867 5867 5867 5867 5867 5866
5880 5879 5878 5877 5875 5873 5870 5867 5864 5861 5857 5853 5850 5846 5843 5840 5838 5836 5835 5834 5835 5835 5836 5839 5841 5843 5845 5848 5850 5853 5856 5858 5860 5862 5863 5864 5865 5865 5866 5866 5866 5866 5865 5865
5878 5878 5876 5875 5873 5871 5869 5866 5864 5861 5857 5854 5851 5848 5845 5842 5839 5838 5837 5836 5836 5836 5837 5838 5840 5843 5845 5848 5850 5853 5855 5856 5859 5860 5861 5863 5864 5864 5865 5865 5865 5865 5864 5864
5876 5876 5875 5873 5871 5869 5867 5865 5863 5860 5857 5854 5852 5849 5846 5843 5841 5839 5838 5837 5837 5837 5837 5839 5840 5842 5845 5848 5850 5852 5854 5856 5858 5859 5860 5862 5863 5863 5863 5863 5863 5863 5863 5862
5874 5874 5872 5871 5870 5868 5866 5864 5862 5859 5857 5855 5853 5850 5848 5845 5843 5841 5839 5838 5838 5838 5839 5840 5841 5843 5845 5847 5849 5851 5854 5856 5857 5858 5859 5861 5861 5862 5862 5862 5862 5862 5862 5861
5872 5871 5870 5869 5868 5866 5864 5863 5861 5859 5857 5856 5853 5852 5850 5847 5845 5843 5842 5840 5840 5840 5840 5841 5842 5844 5846 5848 5850 5852 5853 5855 5856 5857 5858 5859 5860 5860 5861 5861 5861 5861 5860 5860
5870 5869 5868 5867 5866 5865 5863 5862 5860 5858 5857 5856 5854 5852 5851 5848 5847 5845 5844 5843 5842 5841 5842 5842 5843 5845 5846 5848 5850 5851 5853 5854 5855 5856 5857 5858 5859 5859 5859 5859 5859 5859 5858 5858
5867 5867 5866 5865 5864 5862 5861 5860 5859 5857 5856 5855 5853 5852 5852 5849 5847 5846 5845 5844 5843 5843 5842 5843 5844 5845 5846 5848 5849 5850 5851 5852 5853 5855 5856 5857 5857 5857 5857 5857 5857 5857 5856 5855
5864 5864 5864 5862 5861 5860 5858 5857 5857 5855 5854 5854 5853 5853 5851 5850 5848 5847 5846 5845 5844 5843 5843 5843 5844 5845 5846 5847 5848 5849 5850 5851 5852 5853 5854 5854 5855 5855 5855 5855 5854 5854 5853 5852
5860 5860 5860 5859 5858 5857 5856 5854 5854 5853 5851 5851 5851 5851 5851 5849 5848 5847 5846 5845 5844 5844 5843 5843 5844 5844 5845 5846 5847 5848 5849 5850 5851 5851 5851 5852 5852 5852 5852 5852 5851 5850 5849 5848
5856 5857 5856 5856 5855 5853 5852 5851 5850 5849 5849 5848 5848 5851 5849 5848 5847 5846 5845 5844 5843 5843 5843 5843 5843 5843 5844 5845 5845 5846 5847 5847 5848 5848 5848 5848 5849 5849 5848 5848 5847 5846 5845 5844
5852 5852 5852 5852 5851 5849 5848 5847 5847 5846 5845 5845 5845 5848 5846 5845 5845 5845 5844 5843 5842 5842 5842 5841 5841 5842 5842 5842 5843 5844 5844 5844 5845 5845 5845 5845 5845 5844 5843 5843 5842 5841 5840 5838
5847 5848 5848 5848 5849 5847 5845 5843 5843 5842 5842 5841 5841 5844 5842 5842 5842 5842 5842 5842 5841 5840 5840 5839 5839 5839 5839 5840 5840 5840 5841 5841 5841 5841 5841 5840 5840 5839 5838 5837 5836 5835 5834 5832
5843 5843 5845 5845 5843 5842 5841 5840 5839 5838 5838 5837 5838 5839 5839 5838 5838 5839 5839 5839 5838 5838 5837 5837 5836 5836 5836 5836 5836 5836 5837 5837 5836 5836 5836 5835 5834 5833 5832 5831 5829 5828 5827 5825
5839 5839 5839 5839 5838 5838 5837 5836 5835 5834 5834 5834 5834 5834 5834 5834 5835 5835 5835 5835 5835 5835 5834 5834 5833 5833 5833 5832 5832 5832 5832 5831 5831 5830 5830 5829 5827 5826 5825 5824 5822 5821 5819 5817
5833 5834 5834 5834 5834 5833 5833 5832 5830 5830 5830 5830 5830 5830 5830 5829 5830 5831 5831 5831 5831 5830 5830 5830 5829 5829 5828 5828 5827 5827 5826 5826 5825 5824 5823 5822 5821 5819 5818 5816 5814 5813 5811 5809
5828 5829 5829 5829 5829 5828 5828 5828 5826 5825 5825 5825 5825 5826 5825 5825 5825 5825 5826 5826 5825 5825 5825 5825 5824 5823 5823 5823 5822 5821 5821 5820 5819 5818 5817 5815 5813 5812 5810 5808 5806 5804 5802 5800
5823 5823 5823 5824 5824 5823 5826 5823 5822 5821 5820 5820 5820 5819 5819 5819 5819 5819 5820 5820 5819 5819 5819 5819 5818 5818 5817 5817 5816 5815 5814 5813 5812 5810 5809 5807 5805 5804 5802 5799 5797 5795 5792 5790
5817 5817 5818 5818 5817 5818 5819 5818 5816 5816 5816 5815 5814 5814 5813 5813 5813 5813 5813 5813 5813 5812 5812 5811 5811 5811 5811 5810 5809 5808 5807 5805 5804 5802 5801 5799 5797 5794 5792 5790 5787 5785 5783 5781
5811 5811 5812 5812 5812 5812 5814 5812 5810 5811 5811 5810 5809 5808 5807 5807 5807 5807 5806 5806 5806 5805 5805 5804 5804 5803 5803 5802 5801 5800 5799 5797 5795 5793 5791 5789 5787 5785 5782 5779 5777 5774 5772 5769
5804 5805 5806 5806 5806 5807 5807 5805 5805 5806 5806 5804 5803 5802 5802 5801 5801 5800 5799 5799 5799 5798 5797 5797 5796 5795 5795 5794 5793 5791 5790 5788 5786 5784 5782 5779 5777 5774 5771 5769 5766 5763 5760 5758
5798 5799 5800 5800 5801 5802 5800 5799 5800 5799 5798 5797 5797 5796 5796 5795 5793 5793 5792 5791 5791 5790 5789 5789 5788 5787 5786 5785 5784 5782 5780 5778 5776 5773 5771 5768 5766 5763 5760 5757 5754 5750 5747 5744
5792 5793 5793 5795 5796 5795 5794 5794 5793 5792 5792 5791 5790 5790 5789 5788 5787 5786 5785 5784 5784 5783 5782 5781 5780 5779 5778 5776 5774 5772 5770 5767 5765 5762 5760 5757 5754 5750 5747 5744 5740 5737 5733 5730
5785 5786 5787 5788 5788 5788 5788 5787 5786 5786 5785 5784 5784 5783 5782 5781 5780 5779 5778 5777 5777 5776 5775 5773 5772 5770 5768 5766 5764 5761 5759 5756 5753 5750 5747 5744 5741 5737 5734 5729 5726 5722 5718 5714
5779 5779 5780 5780 5781 5781 5781 5780 5780 5779 5779 5778 5777 5776 5775 5775 5774 5773 5772 5770 5769 5768 5766 5764 5762 5760 5758 5756 5753 5751 5748 5745 5741 5738 5735 5731 5727 5723 5719 5715 5710 5706 5701 5696
5772 5772 5773 5773 5774 5774 5774 5773 5773 5772 5772 5771 5770 5769 5768 5767 5766 5765 5763 5762 5761 5759 5757 5755 5753 5751 5748 5745 5742 5739 5736 5733 5729 5725 5721 5717 5713 5708 5704 5699 5695 5689 5684 5679
Wind_Speed
8 8 10 12 13 13 13 14 16 17 16 16 16 16 14 13 9 7 4 3 4 6 7 11 13 14 15 15 14 12 11 9 7 5 4 3 3 3 4 4 5 5 5 6
7 7 9 11 13 13 13 14 15 16 15 16 15 15 13 11 9 6 4 1 4 6 6 9 12 14 14 13 13 12 11 10 7 6 4 3 3 3 4 4 4 5 5 6
7 7 8 11 12 13 12 12 15 16 15 14 14 13 12 10 8 6 3 1 3 4 6 8 11 13 13 12 12 12 10 8 7 5 4 3 3 3 3 3 4 5 5 6
7 7 8 10 11 12 13 13 14 14 13 13 12 12 11 9 8 6 3 1 2 3 6 8 10 12 12 11 11 10 9 8 7 6 5 4 3 3 3 3 4 5 5 7
8 8 9 10 11 12 14 14 13 12 11 11 10 10 10 10 8 7 5 2 3 4 6 8 10 10 10 11 10 9 8 9 7 6 5 4 3 3 3 4 5 5 6 7
10 9 10 10 12 13 15 15 13 11 10 9 9 8 8 9 8 7 5 3 2 4 5 7 9 8 9 9 9 9 8 8 7 6 5 4 4 4 4 5 5 6 7 7
10 10 11 12 13 13 15 15 13 10 8 8 7 7 7 7 7 6 5 4 3 3 4 6 7 8 8 8 9 8 8 7 6 6 5 5 5 6 6 6 6 7 8 8
11 11 12 13 14 14 15 15 14 13 10 8 6 6 7 7 6 6 5 3 3 3 4 5 7 6 6 6 7 7 7 7 7 6 6 6 7 7 7 7 8 9 9 10
13 12 13 14 15 16 16 15 15 14 12 9 6 6 6 7 7 6 5 4 2 1 2 3 5 5 5 6 6 6 7 7 8 8 8 8 8 9 9 9 10 11 11 12
15 16 15 16 16 17 17 17 16 15 15 12 7 6 7 7 7 6 6 5 4 3 2 3 4 5 6 7 7 8 8 9 9 9 9 9 10 10 11 12 12 13 14 15
18 18 16 16 17 17 17 18 17 17 17 15 12 9 9 9 9 8 7 6 6 5 5 5 6 8 8 9 9 9 10 10 11 11 11 11 12 13 13 14 15 16 17 17
19 18 16 15 15 17 17 17 17 18 17 16 15 11 11 11 10 9 9 9 9 8 8 8 9 10 10 11 11 11 12 12 13 13 13 14 15 15 16 17 18 18 19 20
17 16 14 14 15 16 17 17 17 17 17 15 14 11 12 13 12 12 12 12 11 11 11 11 11 12 12 13 13 13 14 14 15 15 16 16 17 17 18 20 21 21 22 23
15 13 14 15 15 16 16 16 17 17 16 15 14 13 13 14 14 13 13 14 13 12 12 12 12 12 13 14 14 15 15 16 17 17 18 18 19 20 21 22 23 24 25 26
15 15 15 15 16 16 16 16 16 16 16 16 15 15 14 15 14 14 14 15 14 14 13 13 13 13 14 15 16 16 17 18 19 20 21 21 22 23 24 25 26 27 28 29
16 16 16 16 16 17 17 17 17 17 17 17 17 16 16 15 16 16 16 16 16 16 15 15 16 15 15 15 16 17 19 20 21 22 23 24 25 26 27 28 29 30 31 32
17 17 17 17 18 18 16 17 18 18 17 17 18 17 17 17 17 18 18 18 17 17 18 18 17 17 17 17 18 20 21 22 23 24 25 26 27 28 29 30 31 32 34 35
18 18 18 19 20 20 18 18 19 19 18 17 18 18 18 18 18 19 20 20 19 19 20 21 20 20 20 21 22 23 24 24 26 26 27 28 29 30 32 33 33 35 37 37
20 19 20 20 20 19 18 19 19 18 17 17 17 18 18 18 18 19 21 21 20 20 21 22 22 23 23 24 24 25 26 27 28 29 30 31 32 34 35 36 37 38 39 40
22 21 21 21 21 21 20 20 20 19 18 18 18 18 18 18 19 20 21 22 21 22 22 23 24 25 26 26 26 27 28 29 30 31 33 34 36 37 38 39 41 41 42 43
22 21 20 20 22 22 21 19 19 20 19 19 18 18 18 18 18 19 20 22 23 24 24 25 26 27 27 28 29 29 31 32 33 34 35 37 38 40 40 42 43 45 46 47
21 21 21 22 22 21 20 19 20 20 20 20 20 19 19 19 19 19 20 22 24 25 25 26 26 27 28 29 30 31 33 34 36 37 38 39 41 42 44 45 46 47 49 50
21 22 22 22 21 21 20 20 20 20 21 21 21 21 21 21 21 21 21 22 24 24 24 25 27 28 29 31 32 33 35 37 38 39 41 42 44 45 47 48 49 51 52 53
23 24 24 23 21 21 21 21 21 21 22 22 22 21 21 22 22 22 23 23 23 24 25 26 28 29 31 33 34 36 37 39 40 42 43 45 46 47 49 51 52 53 54 56
24 25 25 24 23 23 22 22 23 23 22 22 21 21 21 21 22 23 23 24 25 26 27 29 30 32 33 35 36 37 39 41 42 44 45 47 48 49 51 52 54 55 57 58
25 26 26 25 25 24 23 23 24 24 24 23 23 23 23 24 24 25 25 26 27 28 29 31 32 34 35 36 38 39 41 42 44 45 47 49 50 52 53 55 56 58 60 61
Wind_Direction
311 317 322 331 336 339 339 341 345 345 345 345 342 338 336 338 342 344 322 272 216 196 193 195 195 195 194 193 197 196 193 192 194 205 218 233 256 279 296 305 314 317 317 317
297 306 319 326 330 336 337 341 344 346 347 350 346 342 345 350 355 0 357 276 189 190 188 187 189 194 191 190 190 189 185 181 187 197 211 231 257 284 298 307 315 319 321 325
282 299 316 327 331 334 338 339 343 344 346 353 354 353 355 1 6 10 21 98 167 178 184 181 185 186 187 189 188 184 175 172 180 191 204 224 249 273 289 304 317 325 328 330
268 285 307 323 332 335 338 336 337 338 341 348 354 2 4 8 13 20 34 95 165 177 182 182 181 182 186 186 184 178 178 179 183 188 198 214 235 261 284 303 317 327 332 334
264 282 301 318 329 332 337 338 334 333 337 340 345 359 7 10 17 24 38 77 156 165 165 168 170 173 179 183 180 177 182 186 187 190 197 213 235 262 283 297 309 317 324 327
266 283 299 312 321 327 333 335 332 332 331 337 343 353 4 8 16 28 41 63 140 170 168 170 170 165 169 177 181 182 183 185 187 196 205 219 241 261 275 286 298 308 314 318
266 282 296 307 311 319 328 332 332 333 337 342 340 342 351 356 6 19 33 53 93 138 156 164 169 170 172 178 181 183 183 189 197 207 216 232 249 262 272 281 291 299 306 312
270 283 295 302 307 312 318 323 325 327 332 334 331 334 334 343 346 355 8 31 71 116 149 165 173 175 178 183 192 195 200 206 212 220 231 243 256 265 272 279 286 293 301 306
275 281 286 294 301 306 312 311 314 315 318 320 315 320 317 322 328 329 333 340 353 119 155 171 189 196 201 203 208 212 218 223 227 233 241 251 261 268 274 280 286 291 296 299
278 283 284 289 294 300 302 305 304 306 309 307 291 292 297 295 311 312 312 310 305 291 244 224 220 223 223 223 225 227 231 237 241 245 251 258 264 270 275 280 285 289 292 295
279 286 285 285 291 297 297 297 298 299 301 298 289 280 283 286 291 296 292 291 289 283 270 253 242 237 235 233 235 238 242 246 250 255 259 263 267 270 275 280 284 287 289 292
277 281 285 288 292 297 296 296 295 294 296 294 288 279 271 277 278 280 279 282 280 275 271 264 253 245 242 240 240 242 247 251 255 259 263 265 269 272 277 281 284 286 289 290
273 275 277 283 291 296 298 298 295 294 294 294 287 282 268 271 275 273 271 275 277 271 270 265 256 249 246 245 245 246 249 252 256 260 264 267 271 275 278 281 283 286 288 290
270 271 279 282 289 296 299 297 296 295 294 293 286 280 273 269 272 271 271 272 271 269 267 266 261 253 249 249 250 252 254 256 260 263 267 270 273 276 279 281 284 286 288 289
268 273 278 282 289 296 299 299 298 297 291 290 287 283 277 270 267 268 268 269 268 263 264 263 261 259 256 256 257 257 259 262 265 268 271 273 276 278 280 282 284 286 289 290
265 272 277 282 289 295 298 300 298 296 291 288 286 284 281 276 268 267 268 269 268 261 260 261 259 260 261 261 262 263 265 269 272 274 275 276 278 280 282 284 286 288 289 290
265 272 278 283 286 291 299 302 299 295 290 288 285 286 283 277 272 268 267 268 268 264 263 262 259 257 259 262 265 266 269 273 276 277 278 280 281 283 284 286 287 288 289 290
268 272 276 282 285 287 295 299 298 295 291 288 281 281 281 279 274 267 265 266 266 264 264 262 262 261 263 265 268 271 273 277 280 280 281 282 284 285 285 286 287 288 289 290
266 272 276 280 284 290 295 295 294 294 292 286 282 281 279 276 274 269 267 264 264 263 261 261 261 264 266 267 270 273 276 278 280 282 283 284 286 286 286 287 288 289 289 290
264 268 272 276 282 290 294 291 289 289 290 285 282 282 281 280 275 267 264 262 262 265 265 264 264 266 268 271 274 276 279 281 282 282 283 284 285 285 286 287 287 288 289 290
264 265 269 275 281 286 288 287 285 285 288 284 283 282 279 281 278 273 266 264 265 269 270 268 269 271 271 274 277 279 281 282 282 282 283 283 284 284 285 286 287 288 288 288
261 264 268 273 278 281 282 283 282 283 284 283 283 281 280 281 282 278 274 271 269 271 274 272 273 274 276 277 279 280 281 283 283 284 284 284 284 285 286 286 286 287 287 287
263 265 268 272 276 278 279 281 281 281 282 283 281 280 281 280 280 279 276 274 273 275 275 275 275 277 278 281 281 281 283 284 284 284 285 285 285 286 287 287 286 286 286 287
264 267 269 271 274 276 279 280 277 278 280 281 279 280 282 280 277 276 275 275 274 276 277 279 280 281 282 283 284 284 285 286 286 286 286 287 287 287 287 287 288 288 287 287
265 268 271 272 274 276 277 277 276 277 281 280 277 279 280 279 277 276 278 279 279 280 282 283 284 285 285 287 287 288 288 288 288 289 289 289 289 289 289 289 289 288 288 288
264 267 270 272 274 274 276 276 276 276 277 279 278 279 281 282 281 280 281 282 282 284 285 285 286 287 288 289 289 289 290 290 291 291 291 291 291 290 290 290 289 289 289 289